Lexington Weather

Lexington, Massachusetts, USA

54°F
5/18/2024 12:30am 
  • Lexington Conditions: Clear
  • Temperature: 54.1°F / 12.3°CColder 1.1°F than last hour.
  • Dew Point: 50.0°FDecreased 0.2°Fsince last hour.
  • Relative Humidity: 86%Increased 3.0% since last hour.
  • Wind: Calm, 10-min avg: Calm, gust: None
  • Barometer: 29.96 in Steady
  • Visibility: 10 miles
  • Rain Today: 0.00 in
  •   

Regional Weather Roundup
for Boston, MA

        
000
ASUS41 KBOX 150810
RWRBOX

REGIONAL WEATHER ROUNDUP
NATIONAL WEATHER SERVICE BOSTON/NORTON MA
400 AM EDT WED MAY 15 2024

NOTE:  "FAIR" INDICATES FEW OR NO CLOUDS BELOW 12,000 FEET WITH NO 
SIGNIFICANT WEATHER AND/OR OBSTRUCTIONS TO VISIBILITY.

MAZALL-150900-
EASTERN MASSACHUSETTS
  
CITY           SKY/WX    TMP DP  RH WIND       PRES   REMARKS
BOSTON         CLOUDY    60  54  80 SW9       29.91S                  
BEVERLY        CLEAR     60  55  83 S5        29.90S                  
LAWRENCE       MOCLDY    61  55  81 S6        29.92S                  
BEDFORD        PTCLDY    61  55  81 SW5       29.90S                  
NORWOOD        CLEAR     59  55  87 S3        29.92S                  
MARSHFIELD     CLEAR     59  54  82 S3        29.92S                  
PLYMOUTH       CLEAR     59  53  80 SW5       29.92F                  
TAUNTON        CLEAR     62  54  74 S3        29.92F                  
NEW BEDFORD    CLEAR     57  54  89 SW6       29.93S                  
$$

MAZALL-150900-
CAPE COD AND THE ISLANDS
  
CITY           SKY/WX    TMP DP  RH WIND       PRES   REMARKS
FALMOUTH       PTCLDY    57  54  88 SW7       29.94F                  
HYANNIS        CLEAR     56  52  86 SW5       29.93F                  
CHATHAM        CLEAR     57  53  86 CALM      29.95S                  
PROVINCETOWN   CLEAR     55  54  96 SW7       29.94S                  
NANTUCKET      CLEAR     53  51  93 CALM      29.96S                  
MARTHAS VNYRD  CLEAR     56  53  90 SW3       29.95S                  
$$
 
MAZALL-150900-
CENTRAL AND WESTERN MASSACHUSETTS
  
CITY           SKY/WX    TMP DP  RH WIND       PRES   REMARKS
WORCESTER      CLOUDY    61  55  81 W10       29.92S                  
FITCHBURG      CLOUDY    64  53  67 CALM      29.91S                  
ORANGE         CLOUDY    61  56  83 CALM      29.91F                  
SPRINGFIELD    CLOUDY    61  56  82 S5        29.88S                  
WESTFIELD      CLOUDY    61  58  90 SE5       29.90S                  
NORTH ADAMS    LGT RAIN  62  56  80 VRB3      29.89F                  
PITTSFIELD     LGT RAIN  57  55  93 CALM      29.90F                  
$$
 
RIZALL-150900-
RHODE ISLAND
  
CITY           SKY/WX    TMP DP  RH WIND       PRES   REMARKS
PROVIDENCE     MOCLDY    60  56  86 SW5       29.93F                  
NEWPORT        CLEAR     57  52  83 CALM      29.93F                  
BLOCK ISLAND   PTCLDY    55  52  89 CALM      29.94F                  
SMITHFIELD     LGT RAIN  58  57  97 W7        29.93F                  
WESTERLY       CLOUDY    57  52  83 CALM      29.93F                  
$$
 
CTZALL-150900-
CONNECTICUT
  
CITY           SKY/WX    TMP DP  RH WIND       PRES   REMARKS
BRADLEY INTL   LGT RAIN  62  57  83 S7        29.91S                  
HARTFORD       LGT RAIN  61  57  87 S5        29.91F                  
PLAINVILLE     LGT RAIN  60  59  98 S3        29.91F                  
BRIDGEPORT     LGT RAIN  58  56  93 E5        29.90F                  
DANBURY        LGT RAIN  61  58  90 SE3       29.90F                  
GROTON         LGT RAIN  59  56  89 E3        29.92F                  
NEW HAVEN      LGT RAIN  60  58  92 E3        29.91F                  
CHESTER        CLOUDY    57  57 100 CALM      29.93S                  
MERIDEN        LGT RAIN  59  55  87 CALM      29.91F                  
WILLIMANTIC    LGT RAIN  59  56  89 CALM      29.94R                  
OXFORD         LGT RAIN  58  57  97 CALM      29.92F FOG              
$$

MEZ002-015-021-024-NHZ003-005-008-011-012-014-VTZ005-008-150900-
NORTHERN NEW ENGLAND
  
CITY           SKY/WX    TMP DP  RH WIND       PRES   REMARKS
PORTLAND ME    CLOUDY    49  47  93 CALM      29.89S                  
BANGOR ME      MOCLDY    51  49  92 CALM      29.89F                  
CONCORD NH     CLEAR     57  54  89 CALM      29.89R                  
MANCHESTER NH  MOCLDY    60  54  80 S7        29.88F                  
NASHUA NH      MOCLDY    61  60  97 CALM      29.91S                  
PORTSMOUTH NH  MOCLDY    60  54  79 SW7       29.88S                  
JAFFREY NH     PTCLDY    59  54  83 CALM      29.92S                  
KEENE NH       MOCLDY    56  55  97 CALM      29.90F                  
BURLINGTON VT  LGT RAIN  61  58  90 MISG      29.84F                  
MT. WASHINGTON MOCLDY    45  39  81 W17         N/A                   
$$

NYZ052-076-150900-
EASTERN NEW YORK
  
CITY           SKY/WX    TMP DP  RH WIND       PRES   REMARKS
ALBANY         LGT RAIN  61  57  87 SE5       29.88F FOG              
NEW YORK CITY  LGT RAIN  59  56  89 SE3       29.88F FOG              
$$
 
ANZALL-150900-
MARINE OBSERVATIONS
  
STATION/POSITION TIME  TEMP    WIND        PRES    VSBY  WAVE
                       AIR SEA DIR/SP/G                  HT/PER
                 (UTC) (F)     (DEG/KT/KT) (MB)    (MI)  (FT/S)
BOSTON BUOY      0750   55 53  200/  6/  8 1013.3F         2/ 9
BUZZARDS BAY     0700   55     220/  4/  4 1014.5F
NANTUCKET SOUND  0750   56 54  200/  2/  4 1013.7F         1
MASS BAY-STELLWA 0604   56 52  220/ 12/ 14 1012.8S  1 7/8  2/ 4
ISLE OF SHOALS   0700   63     210/ 17/ 18 1011.4F
S OF BLOCK IS    0756      51                N/A           2/ 8
$$

......................KEY.........................
  SKY/WX - SKY CONDITION/PRESENT WEATHER
  TMP    - TEMPERATURE IN FAHRENHEIT
  DWPT   - DEWPOINT IN FAHRENHEIT
  RH     - RELATIVE HUMIDITY IN PERCENT
  WIND   - DIRECTION AND SPEED IN MPH
  PRES   - MEAN SEA LEVEL PRESSURE IN INCHES OF HG
  WCI    - WIND CHILL INDEX
  VSB    - VISIBILITY IN MILES
  HX     - HEAT INDEX
  TC     - TEMPERATURE IN CELSIUS
  VRB    - VARIABLE WIND DIRECTION
  N/A    - NOT AVAILABLE
  
      

Other recent Regional Weather Roundups

Sat May 18, 12:10am EDT

Fri May 17, 11:10pm EDT

Fri May 17, 10:10pm EDT

Fri May 17, 9:10pm EDT

Fri May 17, 8:10pm EDT

Fri May 17, 7:10pm EDT

Fri May 17, 6:10pm EDT

Fri May 17, 5:10pm EDT

Fri May 17, 4:10pm EDT

Fri May 17, 3:10pm EDT

Fri May 17, 2:10pm EDT

Fri May 17, 1:10pm EDT

Fri May 17, 12:10pm EDT

Fri May 17, 11:10am EDT

Fri May 17, 10:10am EDT

Fri May 17, 9:10am EDT

Fri May 17, 8:10am EDT

Fri May 17, 7:10am EDT

Fri May 17, 6:10am EDT

Fri May 17, 5:10am EDT

Fri May 17, 4:10am EDT

Fri May 17, 3:10am EDT

Fri May 17, 2:10am EDT

Fri May 17, 1:10am EDT

Fri May 17, 12:10am EDT

Thu May 16, 11:10pm EDT

Thu May 16, 10:10pm EDT

Thu May 16, 9:10pm EDT

Thu May 16, 8:10pm EDT

Thu May 16, 7:10pm EDT

Thu May 16, 6:10pm EDT

Thu May 16, 5:10pm EDT

Thu May 16, 4:10pm EDT

Thu May 16, 3:10pm EDT

Thu May 16, 2:10pm EDT

Thu May 16, 1:10pm EDT

Thu May 16, 12:10pm EDT

Thu May 16, 11:10am EDT

Thu May 16, 10:10am EDT

Thu May 16, 9:10am EDT

Thu May 16, 8:10am EDT

Thu May 16, 7:10am EDT

Thu May 16, 6:10am EDT

Thu May 16, 5:10am EDT

Thu May 16, 4:10am EDT

Thu May 16, 3:10am EDT

Thu May 16, 2:10am EDT

Thu May 16, 1:10am EDT

Thu May 16, 12:10am EDT

Wed May 15, 11:10pm EDT

Wed May 15, 10:10pm EDT

Wed May 15, 9:10pm EDT

Wed May 15, 8:10pm EDT

Wed May 15, 7:10pm EDT

Wed May 15, 6:10pm EDT

Wed May 15, 5:10pm EDT

Wed May 15, 4:10pm EDT

Wed May 15, 3:10pm EDT

Wed May 15, 2:10pm EDT

Wed May 15, 1:10pm EDT

Wed May 15, 12:10pm EDT

Wed May 15, 11:10am EDT

Wed May 15, 10:10am EDT

Wed May 15, 9:10am EDT

Wed May 15, 8:10am EDT

Wed May 15, 7:10am EDT

Wed May 15, 6:10am EDT

Wed May 15, 5:10am EDT

Wed May 15, 3:10am EDT

Wed May 15, 2:10am EDT

Wed May 15, 1:10am EDT

Wed May 15, 12:10am EDT

Tue May 14, 11:10pm EDT

Tue May 14, 10:10pm EDT

Tue May 14, 9:10pm EDT

Tue May 14, 8:10pm EDT

Tue May 14, 7:10pm EDT

Tue May 14, 6:10pm EDT

Tue May 14, 5:10pm EDT

Tue May 14, 4:10pm EDT

Tue May 14, 3:10pm EDT

Tue May 14, 2:10pm EDT

Tue May 14, 1:10pm EDT

Tue May 14, 12:10pm EDT

Tue May 14, 11:10am EDT

Tue May 14, 10:10am EDT

Tue May 14, 9:10am EDT

Tue May 14, 8:10am EDT

Tue May 14, 7:10am EDT

Tue May 14, 6:10am EDT

Tue May 14, 5:10am EDT

Tue May 14, 4:10am EDT

Tue May 14, 3:10am EDT

Tue May 14, 2:10am EDT

Tue May 14, 1:10am EDT

Tue May 14, 12:10am EDT

Mon May 13, 11:10pm EDT

Mon May 13, 10:10pm EDT

Mon May 13, 9:10pm EDT

Mon May 13, 8:10pm EDT

Mon May 13, 7:10pm EDT

Mon May 13, 6:10pm EDT

Mon May 13, 5:10pm EDT

Mon May 13, 4:10pm EDT

Mon May 13, 3:10pm EDT

Mon May 13, 2:10pm EDT

Mon May 13, 1:10pm EDT

Mon May 13, 12:10pm EDT

Mon May 13, 11:10am EDT

Mon May 13, 10:10am EDT

Mon May 13, 9:10am EDT

Mon May 13, 8:10am EDT

Mon May 13, 7:10am EDT

Mon May 13, 6:10am EDT

Mon May 13, 5:10am EDT

Mon May 13, 4:10am EDT

Mon May 13, 3:10am EDT

Mon May 13, 2:10am EDT

Mon May 13, 1:10am EDT

Mon May 13, 12:10am EDT

Sun May 12, 11:10pm EDT

Sun May 12, 10:10pm EDT

Sun May 12, 9:10pm EDT

Sun May 12, 8:10pm EDT

Sun May 12, 7:10pm EDT

Sun May 12, 6:10pm EDT

Sun May 12, 5:10pm EDT

Sun May 12, 4:10pm EDT

Sun May 12, 3:10pm EDT

Sun May 12, 2:10pm EDT

Sun May 12, 1:10pm EDT

Sun May 12, 12:10pm EDT

Sun May 12, 11:10am EDT

Sun May 12, 10:10am EDT

Sun May 12, 9:10am EDT

Sun May 12, 8:10am EDT

Sun May 12, 7:10am EDT

Sun May 12, 6:10am EDT

Sun May 12, 5:10am EDT

Sun May 12, 4:10am EDT

Sun May 12, 3:10am EDT

Sun May 12, 2:10am EDT

Sun May 12, 1:10am EDT

Sun May 12, 12:10am EDT

Sat May 11, 11:10pm EDT

Sat May 11, 10:10pm EDT

Sat May 11, 9:10pm EDT

Sat May 11, 8:10pm EDT

Sat May 11, 7:10pm EDT

Sat May 11, 6:10pm EDT

Sat May 11, 5:10pm EDT

Sat May 11, 4:10pm EDT

Sat May 11, 3:10pm EDT

Sat May 11, 2:10pm EDT

Sat May 11, 1:10pm EDT

Sat May 11, 12:10pm EDT

Sat May 11, 11:10am EDT

Sat May 11, 10:10am EDT

Sat May 11, 9:10am EDT

Sat May 11, 8:10am EDT

Sat May 11, 7:10am EDT

Sat May 11, 6:10am EDT

Sat May 11, 5:10am EDT

Sat May 11, 4:10am EDT

Sat May 11, 3:10am EDT

Sat May 11, 2:10am EDT

Sat May 11, 1:10am EDT